Theta_e
305 304 305 305 304 304 305 306 305 307 309 309 309 309 310 310 310 315 313 307 306 308 308 308 308 308 308 308 309 307 308 309 309 310 309 310 309 309 310 310 310 311 310 310 310 310 309 308 308 307 307 307 307 307 307 306 306 306 306 306 306 306 306 306 306 306 306 305 305 305 305 305 305 305 305 304 304 303 303 302 302 302 303 303 303 303
305 304 304 305 305 304 305 305 306 307 307 309 309 308 309 309 311 316 312 307 308 309 308 307 307 308 308 308 309 308 308 309 309 309 309 309 310 310 310 310 310 310 310 309 310 311 310 308 308 308 308 307 307 307 307 306 306 306 306 306 306 306 306 307 307 306 306 306 306 306 305 305 305 305 305 304 304 303 303 303 303 302 303 303 303 303
306 305 304 305 305 305 304 305 306 307 307 307 308 307 307 307 309 312 310 308 308 309 308 308 308 308 308 308 309 309 309 308 308 308 308 309 309 310 310 310 310 310 310 310 309 309 309 309 309 308 308 308 308 307 307 307 307 306 306 306 306 306 306 307 307 306 306 306 306 305 305 305 305 305 304 304 303 303 302 302 302 303 303 302 302 302
306 305 305 305 306 305 305 306 307 308 307 307 307 306 305 305 307 308 309 308 309 309 308 308 307 306 306 307 307 307 307 307 308 308 308 308 308 308 309 309 309 309 309 309 309 308 309 309 309 309 308 308 308 308 307 307 307 306 306 306 306 306 306 306 307 306 306 305 305 305 305 305 304 304 304 303 303 303 303 303 303 303 303 302 302 302
306 306 306 305 304 305 305 306 307 307 307 307 307 306 306 306 307 308 309 308 308 309 308 305 305 306 306 309 309 307 307 307 307 307 307 307 308 307 308 308 308 309 308 309 309 308 309 309 309 309 309 309 308 308 308 308 307 307 307 307 306 307 307 307 307 306 306 305 305 304 304 304 304 304 304 305 304 304 304 304 304 303 302 302 302 302
306 306 306 305 304 304 305 306 307 307 306 306 307 306 307 307 309 311 310 307 307 308 307 305 305 306 307 312 316 312 309 308 306 307 307 307 308 308 308 308 308 308 308 308 309 309 309 309 309 309 309 310 309 309 309 308 308 308 307 307 307 307 307 307 306 306 306 305 305 304 304 304 304 304 305 305 305 304 304 304 304 303 302 302 302 302
306 306 306 306 305 305 305 305 306 307 306 304 306 307 307 308 310 311 309 306 306 307 308 308 307 306 307 313 319 317 314 312 309 308 308 307 307 308 308 308 308 308 309 309 309 309 309 310 310 310 310 310 310 309 309 308 308 308 307 307 307 307 307 307 306 306 306 305 305 304 304 304 303 304 304 304 304 304 304 304 303 302 302 302 302 302
307 307 307 307 306 306 305 305 305 306 305 304 309 311 308 307 309 309 309 307 307 306 307 309 308 307 307 308 315 319 317 317 315 313 311 309 308 309 309 309 309 309 309 309 309 309 309 310 310 311 311 311 311 310 309 309 308 308 308 307 307 306 306 306 306 306 305 305 305 304 304 303 303 304 304 304 304 304 303 303 302 302 302 302 301 302
308 307 307 307 306 305 305 304 305 305 304 306 311 313 309 307 308 308 308 306 305 305 305 307 307 306 306 308 312 315 314 316 319 316 312 310 309 309 310 310 310 310 309 309 309 309 309 309 310 310 310 310 310 310 309 309 308 308 307 307 306 306 306 306 306 306 305 305 305 304 304 303 303 303 303 303 303 303 303 303 303 302 302 302 302 302
307 306 306 307 306 305 305 305 305 304 305 308 310 311 310 308 308 309 308 306 305 304 304 306 307 304 305 309 311 310 311 313 314 313 311 309 308 309 310 310 309 309 309 309 309 309 309 309 309 309 309 309 309 309 308 308 308 307 306 306 305 305 305 306 306 306 305 304 304 304 304 303 303 303 303 303 303 304 305 306 306 305 303 303 303 303
306 304 304 306 306 305 305 305 307 306 306 308 308 308 309 307 307 308 307 306 306 304 304 306 307 305 304 307 310 309 310 310 309 309 310 309 308 308 309 309 309 309 309 309 309 309 309 309 308 308 308 308 308 308 307 307 306 306 305 305 305 305 305 305 305 305 305 305 304 304 303 303 303 303 302 302 304 305 306 306 305 304 303 303 303 302
306 305 305 305 304 304 305 305 307 309 307 307 307 307 307 306 306 306 305 307 306 304 305 306 307 306 304 306 309 310 309 309 309 310 312 312 309 307 308 309 309 309 310 310 310 310 310 310 309 308 307 307 307 306 306 306 305 305 305 304 304 304 304 305 305 305 305 305 304 303 303 303 303 303 302 302 303 304 304 303 302 302 301 301 301 301
306 306 305 305 304 304 305 305 306 308 307 306 307 306 306 306 306 305 305 306 305 304 307 308 308 306 305 305 306 308 307 308 309 310 312 313 311 308 308 309 309 309 311 310 311 310 310 310 309 308 307 306 306 306 306 306 305 304 304 304 304 304 304 305 305 305 305 304 304 303 303 303 303 303 302 302 302 302 302 301 301 301 301 301 301 301
306 306 305 305 304 304 305 305 305 306 306 305 305 305 305 306 306 305 305 305 305 305 308 309 308 307 307 306 306 306 305 307 307 307 308 309 309 309 309 309 309 309 310 309 310 309 309 309 308 308 307 306 306 306 307 306 305 304 304 303 303 304 304 304 305 304 305 304 303 303 303 303 303 303 302 302 302 302 301 301 301 301 301 301 301 301
306 307 306 305 305 304 304 304 305 306 305 305 305 306 306 307 308 307 307 306 306 306 305 305 308 310 310 309 309 308 306 306 305 306 306 306 307 308 309 309 308 308 308 308 307 307 307 307 307 307 307 307 306 306 307 307 306 305 304 304 304 304 304 304 304 305 305 304 303 303 303 303 303 303 302 302 302 302 301 301 301 301 301 301 301 301
306 306 306 305 305 305 304 304 305 306 306 305 305 306 306 307 309 309 310 309 309 308 305 304 307 311 309 307 309 309 308 308 306 306 306 306 307 308 308 308 308 307 306 306 306 306 305 305 305 306 306 306 306 306 306 307 306 305 304 304 304 304 304 304 305 305 304 304 303 303 303 303 303 303 302 302 302 301 301 301 301 301 301 301 301 300
305 306 307 306 305 305 304 304 305 306 306 306 305 305 306 307 308 309 311 310 309 309 309 307 307 307 306 306 307 307 308 308 308 309 308 307 307 308 308 308 307 307 307 307 307 307 306 305 305 305 305 306 306 305 306 306 306 306 305 304 304 304 304 305 305 305 304 304 303 303 303 303 303 302 302 302 302 301 301 301 301 301 301 301 301 300
302 302 304 305 305 306 304 304 305 305 306 306 305 305 306 307 307 307 309 310 308 309 311 309 307 305 305 308 310 308 308 307 307 309 309 308 307 307 307 308 308 308 308 308 307 307 307 306 305 305 305 305 305 305 305 305 304 305 305 304 304 304 305 305 305 305 304 303 303 303 303 303 302 302 302 302 301 301 301 301 301 301 301 301 300 300
297 297 302 305 306 306 305 305 305 305 306 306 307 307 306 306 306 305 306 309 310 310 311 310 308 306 305 307 310 310 309 309 308 307 307 309 308 307 306 307 308 308 308 308 307 307 307 306 306 306 305 305 304 304 304 304 304 304 304 304 304 305 305 305 305 304 303 302 302 303 302 302 302 302 302 301 301 301 300 301 301 301 301 300 300 300
295 297 301 304 304 304 306 306 305 305 306 305 306 307 306 306 307 307 306 308 310 311 311 311 310 309 308 307 308 309 309 310 311 309 308 308 308 307 307 308 308 308 308 308 307 307 307 307 307 306 305 305 304 304 304 304 303 303 304 304 304 305 305 305 304 303 302 302 302 302 302 302 302 301 301 301 300 301 301 301 301 301 301 300 300 300
295 295 297 299 299 301 305 306 305 305 306 304 305 305 306 306 307 309 308 307 309 310 311 312 312 310 310 308 308 309 309 310 312 312 312 309 307 307 308 309 309 308 308 308 307 307 307 306 307 306 305 305 304 304 304 303 303 303 304 304 304 304 304 304 303 302 302 302 302 302 302 302 301 301 301 301 301 301 302 302 301 301 301 300 300 300
295 295 295 296 297 298 300 303 304 305 305 305 305 305 305 306 306 307 308 307 307 308 310 311 312 312 311 310 310 310 310 311 311 313 314 311 308 308 309 310 309 309 308 308 307 308 307 306 306 305 305 305 304 304 304 303 303 303 303 304 304 304 304 303 302 302 302 302 302 302 302 301 301 301 301 301 302 302 302 302 301 302 301 301 301 300
294 294 295 295 296 296 297 298 300 303 304 305 306 305 305 305 306 306 307 308 308 307 307 310 310 311 312 312 309 308 309 309 309 311 314 312 307 308 309 309 310 310 309 308 308 307 307 306 305 305 305 305 305 304 304 304 304 303 303 304 304 304 303 302 302 302 302 302 302 301 301 301 301 302 302 302 302 301 301 301 301 302 302 301 302 300
293 292 293 294 294 295 296 297 300 301 302 303 304 304 304 305 306 306 306 307 308 307 307 308 308 310 312 312 309 306 307 307 306 307 311 310 306 306 306 306 307 308 308 308 307 307 307 306 305 305 305 305 305 304 304 304 304 303 303 304 304 303 303 302 302 302 302 302 302 301 301 302 302 302 302 301 301 301 301 301 301 301 301 301 302 301
292 291 292 292 292 293 294 299 303 302 298 298 298 297 297 299 302 305 306 307 307 307 308 309 308 309 309 311 309 307 307 307 305 305 306 307 305 304 304 304 304 305 306 307 307 306 306 305 305 305 304 305 304 304 304 304 304 304 303 304 304 303 302 302 302 302 302 302 302 302 302 302 301 301 301 301 301 301 301 301 301 301 301 300 301 301
291 291 291 290 290 291 293 297 300 297 294 293 293 293 294 295 296 298 302 305 306 307 308 308 309 309 309 310 309 307 307 306 305 305 305 305 305 304 304 304 304 303 303 306 307 306 306 305 304 304 304 304 304 304 304 304 303 303 303 304 303 302 302 302 301 302 302 302 302 302 302 302 301 301 301 301 301 301 300 300 300 300 300 300 300 301
291 291 291 290 290 291 291 293 294 292 292 292 292 293 294 294 294 295 296 300 303 306 307 307 308 310 310 309 308 307 307 307 306 306 306 305 305 304 303 303 303 303 303 303 305 306 305 305 304 304 304 304 304 304 304 304 303 303 304 303 302 301 301 301 301 302 302 302 302 302 302 301 301 301 301 301 301 301 300 300 300 300 300 300 300 300
291 290 291 291 291 291 291 292 292 291 291 292 292 291 291 292 294 294 294 296 297 299 303 307 308 309 309 308 308 308 308 307 307 307 306 306 306 305 304 304 304 303 303 303 303 304 304 304 304 304 304 304 304 304 303 303 303 303 303 303 301 301 301 301 302 302 302 302 302 302 302 301 302 302 301 301 300 300 301 300 301 300 300 300 300 300
291 290 290 290 290 290 291 291 291 291 291 291 291 291 292 292 293 293 293 294 295 295 297 300 302 304 307 307 308 308 308 307 307 306 306 306 306 305 305 305 305 304 305 304 304 304 304 304 304 304 304 303 303 303 303 303 303 303 303 302 301 301 302 302 303 302 302 302 302 302 302 302 302 302 301 301 300 300 301 300 301 301 300 300 300 300
290 290 290 290 289 290 291 290 290 290 290 291 291 291 292 292 292 292 292 294 295 294 294 295 296 299 304 306 307 307 307 307 307 307 306 306 306 306 306 306 306 306 306 306 306 306 306 305 305 305 304 304 304 303 303 303 303 303 303 301 301 302 303 303 303 302 302 303 303 303 303 303 303 302 302 302 301 300 300 300 300 300 300 300 300 300
290 289 289 289 289 289 289 289 289 289 289 289 290 290 291 291 291 292 292 293 294 294 294 296 296 298 301 305 306 306 306 306 307 307 307 307 307 307 307 307 307 307 307 307 307 307 307 306 306 306 305 305 305 305 304 304 303 303 303 302 302 303 303 303 302 302 302 303 304 303 303 303 303 303 302 302 302 301 300 300 300 300 300 300 300 300
289 288 288 288 287 287 288 288 288 289 289 289 290 290 291 291 292 292 293 293 293 293 293 294 295 297 301 304 304 305 305 306 306 306 306 307 307 307 307 306 307 307 307 307 307 307 307 307 306 306 305 305 306 306 306 305 304 304 304 303 302 303 303 303 302 303 303 304 304 303 303 303 303 303 303 303 303 302 301 301 300 300 300 300 300 300
288 288 288 288 287 287 287 288 288 289 288 288 289 291 291 291 291 291 292 292 293 293 293 294 295 297 299 299 298 300 303 305 305 305 306 306 307 307 307 307 307 306 306 307 307 307 307 306 306 305 305 305 305 306 307 306 305 304 305 304 302 302 303 303 303 303 303 303 304 304 304 304 304 303 304 303 303 303 303 302 301 300 300 300 300 300
288 288 287 287 287 287 287 287 288 288 287 288 290 291 290 290 290 290 290 291 293 294 295 295 296 297 297 297 298 299 301 303 304 305 306 306 306 307 307 307 307 307 306 306 306 307 307 306 305 305 305 305 305 305 306 306 305 304 304 304 303 303 303 304 303 303 303 303 303 304 304 304 304 304 304 304 304 303 303 303 302 302 301 300 300 300
288 287 287 287 287 287 287 287 287 286 287 289 290 290 290 289 290 290 291 292 293 294 295 295 295 296 296 298 299 299 300 301 302 303 305 306 306 306 306 307 307 306 306 306 306 307 306 306 306 305 305 305 305 305 305 306 306 304 303 303 303 303 303 303 304 303 303 303 303 304 304 304 304 304 304 304 304 303 304 304 303 303 302 301 301 301
287 287 287 287 287 287 287 287 286 287 288 289 288 289 289 289 289 290 290 291 292 293 295 295 295 296 296 297 297 297 299 300 301 302 303 304 304 304 304 305 306 306 306 306 307 306 306 306 306 305 305 305 305 305 305 305 306 305 304 303 303 303 303 303 303 303 303 303 303 303 304 304 304 304 304 304 303 304 304 304 304 304 303 302 301 301
287 287 287 287 287 286 286 286 286 287 288 287 287 288 288 288 288 289 289 290 291 292 293 293 293 293 294 295 297 298 300 300 300 301 302 302 302 302 303 303 304 305 306 306 306 306 306 306 306 305 305 305 305 305 305 305 305 305 305 304 303 303 303 303 303 303 303 303 303 303 304 304 304 304 304 304 304 304 304 304 304 304 304 303 302 302
288 288 287 287 287 286 286 285 286 286 285 286 287 288 288 288 288 289 289 289 290 292 293 293 293 293 295 297 298 299 300 299 299 300 301 301 302 302 302 302 302 303 304 305 305 306 306 306 305 305 305 305 305 305 305 305 305 304 305 305 304 303 303 303 303 303 304 304 304 304 304 304 304 304 304 304 304 304 304 304 304 304 304 304 303 303
288 288 288 287 287 286 285 285 285 285 285 286 287 288 289 288 289 289 289 288 291 295 296 296 296 297 297 298 298 299 299 299 299 299 299 300 301 300 300 301 301 302 303 303 303 304 304 305 305 305 304 304 305 305 305 305 304 304 304 304 304 304 303 303 303 303 304 304 304 304 304 304 304 304 304 304 304 304 304 304 304 304 304 303 303 303
287 287 287 287 286 286 286 286 286 286 286 287 288 288 288 288 289 289 288 289 293 295 296 296 296 297 297 296 297 298 299 299 299 298 297 298 299 299 299 300 300 301 302 302 302 303 303 303 303 304 304 304 304 304 304 304 304 304 304 304 304 304 304 304 304 303 303 304 304 304 304 304 304 304 304 304 304 304 304 304 304 304 304 304 303 303
286 286 287 286 286 286 286 286 286 286 287 287 288 288 288 289 288 287 288 290 292 292 293 294 295 295 296 295 296 297 298 298 297 296 296 297 298 298 299 300 299 300 300 300 301 301 301 301 302 302 303 303 303 303 303 303 303 303 303 303 303 303 304 304 304 304 304 303 303 304 304 303 304 304 304 304 304 304 304 304 304 304 303 304 303 303
286 286 286 286 286 286 286 286 285 286 287 288 288 288 288 288 287 287 289 291 291 291 293 293 293 294 294 294 295 296 296 296 296 295 296 296 296 297 298 299 299 300 300 300 300 300 300 301 301 302 302 302 302 302 302 302 303 303 303 302 303 303 303 303 304 304 304 304 304 304 304 304 304 304 303 303 303 303 303 303 303 303 303 303 303 303
286 286 285 286 286 286 285 285 285 285 288 288 288 288 288 288 288 288 289 290 291 292 292 292 292 293 293 294 294 295 295 295 295 295 295 295 295 295 296 297 298 299 299 299 299 299 299 300 301 301 302 301 301 302 302 302 302 302 302 302 303 303 303 303 303 304 304 304 304 304 304 304 304 303 303 303 303 303 303 303 303 303 303 303 303 303
286 286 285 286 286 285 285 285 286 287 289 289 288 288 289 290 290 289 289 291 291 291 291 292 293 293 293 293 294 294 294 294 294 294 294 294 294 294 294 296 296 297 298 298 298 297 298 298 299 300 301 301 302 302 302 302 302 302 302 302 303 302 302 303 303 303 304 304 304 304 304 304 304 303 304 303 303 303 303 303 303 303 303 303 303 303
286 286 286 286 286 286 286 286 288 289 290 289 288 289 290 290 290 290 290 291 291 290 291 291 291 292 292 293 293 293 293 294 294 293 293 292 292 293 293 294 294 295 296 297 297 297 296 297 297 298 299 300 300 301 301 301 301 301 302 303 302 302 302 303 303 303 304 304 304 304 304 304 304 303 303 303 303 303 303 303 303 303 303 302 303 303
286 287 287 286 286 287 287 287 288 288 288 288 288 289 289 289 290 290 290 291 291 290 290 290 290 291 291 292 293 293 293 293 293 292 291 291 291 291 292 292 293 294 295 296 297 297 296 296 296 296 297 298 299 299 300 300 300 301 301 302 302 302 302 302 302 302 303 303 303 303 303 303 303 303 303 302 302 302 302 303 303 303 303 303 303 303
286 286 286 286 286 286 286 287 287 287 287 287 287 287 288 289 290 290 290 290 290 290 290 290 290 290 291 292 293 292 292 292 292 291 291 290 290 290 291 291 292 292 293 295 296 296 296 295 295 295 296 296 296 297 299 300 300 300 300 300 301 301 301 301 301 302 302 302 302 302 302 303 303 302 302 302 301 301 301 301 302 302 303 303 303 302
286 286 286 286 286 286 286 286 287 287 287 287 287 287 289 290 290 289 290 290 289 289 289 289 289 290 291 292 292 292 291 291 291 290 290 290 290 290 290 290 291 292 292 293 295 296 296 296 295 295 295 295 295 296 298 299 299 299 299 299 300 301 301 301 301 301 301 301 301 301 302 302 302 302 302 302 301 301 301 301 301 302 302 303 303 303
287 286 286 286 286 286 286 286 286 286 287 287 287 288 288 289 289 289 290 289 289 289 289 289 289 290 291 291 291 291 291 290 290 290 290 289 289 289 289 290 290 291 292 293 294 296 296 296 296 296 296 296 296 296 296 297 298 298 298 298 299 300 300 301 300 300 300 300 300 301 301 302 302 302 302 301 301 301 301 301 301 302 302 302 303 303
286 286 286 286 286 286 286 286 287 287 287 287 287 288 288 288 288 289 289 289 289 289 289 289 289 290 290 290 290 290 290 290 289 289 289 288 288 288 289 289 290 290 291 292 293 295 296 296 296 296 297 297 297 297 296 295 296 297 298 298 298 299 299 300 300 300 300 300 300 300 300 301 301 301 301 301 301 301 300 300 300 300 301 301 301 302
286 286 286 286 286 286 286 287 287 287 287 288 288 288 288 288 288 288 289 289 290 289 289 289 289 289 289 289 289 290 289 289 289 288 288 288 287 288 288 289 289 290 291 292 293 294 295 296 296 296 297 298 298 298 297 296 295 296 298 298 298 298 299 299 300 300 301 300 300 300 300 300 300 301 301 301 300 300 299 299 299 298 299 299 300 301
Wind_Speed
11 5 6 11 11 10 11 12 13 10 7 5 3 4 6 6 6 2 2 5 9 6 8 12 13 13 14 11 10 18 21 17 16 16 17 21 22 26 28 29 29 30 31 31 29 28 28 28 26 23 23 26 33 37 38 41 42 41 40 39 37 34 32 31 30 30 30 32 34 35 35 36 35 33 30 29 30 29 26 23 22 22 22 22 22 22
11 7 13 14 9 8 11 13 13 12 12 10 6 6 6 5 5 1 3 5 5 3 6 8 11 14 14 10 9 14 16 16 15 13 17 22 25 29 31 33 33 32 33 33 31 30 28 29 27 25 23 24 32 39 41 42 43 42 41 41 39 37 36 34 33 31 31 33 36 35 35 35 33 31 30 30 29 27 24 22 21 21 21 21 22 21
7 11 15 11 6 9 11 11 13 14 13 10 8 7 8 7 4 2 2 4 4 3 4 3 7 13 11 9 11 11 13 18 20 20 23 26 26 29 31 33 35 35 35 37 37 36 35 34 34 33 31 30 33 39 42 43 43 44 44 43 42 41 40 38 36 34 32 34 36 35 33 32 30 30 30 30 28 25 23 22 21 21 21 21 20 19
7 11 12 8 8 11 12 12 12 12 10 10 8 7 10 8 5 3 3 3 3 4 3 4 6 11 11 9 11 14 19 23 25 30 34 33 32 34 36 37 37 38 39 41 43 42 41 41 41 42 42 40 39 41 43 44 45 46 46 45 45 44 43 41 39 36 33 34 35 34 31 29 29 29 29 28 26 24 23 23 23 22 21 18 17 17
11 11 7 10 14 13 13 13 11 9 7 10 11 10 10 7 7 6 3 4 2 4 2 3 6 11 11 10 11 13 19 24 26 28 32 34 37 38 39 40 40 42 43 44 45 44 43 43 43 45 46 45 44 45 47 48 49 49 48 47 46 45 44 43 42 37 34 35 36 33 31 30 29 30 29 27 26 24 24 24 23 21 18 16 16 17
14 14 7 8 13 13 13 11 10 10 6 8 11 13 13 7 6 6 5 5 1 4 4 2 3 11 9 9 10 9 11 17 18 17 22 29 34 36 37 40 41 42 44 45 46 44 41 41 42 44 44 45 47 47 49 50 51 51 50 49 48 47 46 46 43 38 36 38 38 35 34 34 34 33 32 30 28 26 24 23 21 18 17 16 16 18
10 13 11 10 11 13 12 10 10 10 7 7 7 11 14 10 8 8 7 5 3 4 3 4 4 9 9 7 8 7 8 12 11 10 17 22 26 30 34 38 39 41 44 45 45 43 38 36 38 41 43 45 47 47 47 49 49 50 50 49 49 48 47 46 42 38 38 40 39 37 36 36 36 35 33 30 27 25 23 22 20 19 18 17 18 20
9 11 10 10 11 10 10 9 10 10 8 6 3 6 12 13 12 10 8 6 4 1 2 0 3 6 11 7 7 8 8 9 10 11 13 14 21 28 31 34 37 40 43 43 44 43 39 37 37 39 41 42 43 43 44 46 47 47 48 47 46 45 44 42 40 39 40 40 38 37 36 36 36 34 31 28 26 25 24 23 22 21 20 20 20 20
7 10 11 12 11 8 9 10 10 11 8 5 2 3 8 12 11 8 7 5 3 2 3 5 4 3 10 6 4 7 8 9 13 15 13 10 17 24 28 33 36 37 39 39 40 39 39 40 40 41 40 39 39 39 42 44 44 45 45 45 43 42 41 40 39 40 40 39 37 36 36 36 36 33 30 27 26 24 23 22 22 20 20 21 21 20
3 3 8 12 11 9 10 11 10 12 9 4 2 3 3 4 5 6 5 3 2 4 7 9 8 5 11 6 4 4 6 10 13 12 10 11 16 23 29 34 35 36 36 36 35 33 33 33 35 39 40 38 38 38 39 40 41 43 43 43 42 41 40 39 39 41 40 38 36 36 36 36 35 33 30 28 25 22 22 22 21 20 20 20 20 20
3 4 3 4 6 6 8 6 5 9 9 6 5 6 6 4 3 4 3 4 3 5 10 14 12 8 10 8 6 7 7 9 9 8 8 10 16 25 31 34 35 34 34 34 32 29 28 26 26 31 35 36 35 35 36 37 38 40 40 41 41 41 40 40 41 41 39 37 36 35 36 36 35 33 31 29 26 25 25 24 23 22 21 21 21 21
5 1 2 3 3 3 3 2 2 3 8 9 4 5 4 2 1 2 2 4 4 6 11 12 10 9 9 10 5 8 9 9 9 9 10 10 13 23 31 33 31 28 28 29 28 26 26 25 24 26 29 31 32 32 33 33 34 36 37 39 39 39 40 41 42 41 38 36 35 35 36 36 34 33 32 30 29 28 28 26 24 23 23 23 23 24
9 7 6 4 3 2 3 4 1 1 7 8 5 7 5 3 2 1 4 5 5 8 7 6 12 8 10 16 13 9 10 8 7 6 7 7 10 19 27 27 23 22 22 22 22 23 24 25 26 26 27 28 28 28 27 27 30 33 36 38 38 39 41 42 42 40 37 35 35 36 37 36 34 33 32 30 28 28 27 26 24 24 24 23 23 24
7 8 12 9 5 8 8 6 5 4 6 8 7 8 7 5 4 4 5 4 5 9 6 8 13 6 5 14 19 17 17 15 13 13 12 11 11 14 17 17 18 20 21 20 21 23 24 26 27 26 26 28 29 26 22 22 26 30 33 36 38 40 41 42 41 39 36 35 35 36 36 35 34 32 31 28 27 27 26 25 24 23 23 22 22 22
7 6 10 12 8 12 15 12 8 5 6 9 7 7 8 6 5 5 5 6 6 5 4 5 8 5 5 8 9 9 15 18 24 29 28 26 22 17 14 15 18 19 19 20 21 23 26 27 28 27 27 29 31 29 26 25 26 29 33 36 38 40 41 41 40 37 36 35 35 36 36 35 33 30 28 27 26 26 25 24 23 23 22 21 21 21
11 9 7 17 16 14 17 15 11 7 5 7 6 7 9 8 6 6 7 7 7 4 2 3 5 5 6 11 9 3 3 9 17 24 22 21 22 19 17 18 19 17 17 18 18 19 20 22 26 29 29 30 32 32 31 30 30 32 34 37 39 40 40 39 37 36 34 33 34 35 35 34 31 29 27 26 26 25 25 23 22 21 20 20 20 20
8 8 2 11 15 13 17 18 16 13 7 5 8 9 8 8 7 7 8 4 4 7 5 5 5 4 5 13 15 11 8 6 9 10 9 12 15 16 18 20 21 21 22 22 20 17 14 14 19 24 27 30 32 33 34 35 34 35 37 39 39 39 38 37 35 34 33 32 33 34 34 32 29 28 26 25 25 24 23 22 20 20 19 19 19 19
4 6 3 4 10 11 15 17 16 16 12 6 9 10 8 8 6 3 4 4 6 9 6 8 10 7 6 8 8 9 12 12 12 11 9 10 11 13 18 24 26 27 27 26 25 22 16 13 13 18 23 27 30 33 35 36 37 37 38 38 38 37 36 35 34 33 32 32 32 33 32 30 28 27 26 24 24 23 22 21 19 18 18 17 18 18
6 6 6 4 9 9 9 10 9 13 14 6 3 7 7 7 6 5 5 6 8 8 6 10 12 10 10 9 8 10 12 10 11 13 13 12 10 11 19 26 28 26 25 25 27 26 21 14 12 15 19 22 28 32 33 35 38 38 37 35 34 33 32 32 32 31 30 31 31 31 30 28 27 26 25 23 23 22 21 19 17 16 16 16 17 17
4 3 4 2 3 5 4 6 5 8 8 3 2 4 6 5 6 7 6 5 7 8 7 9 10 7 8 10 15 20 16 9 7 8 11 13 11 14 20 23 23 21 21 23 26 26 24 18 13 13 15 19 25 30 32 34 37 37 35 33 31 30 30 31 30 29 30 30 31 30 28 27 26 25 24 23 22 21 19 16 15 14 15 15 16 16
3 3 5 6 9 6 3 5 8 10 8 5 5 6 6 4 2 2 4 5 7 7 7 8 9 7 6 8 15 20 16 11 9 7 7 10 14 19 22 23 24 22 21 22 23 24 24 22 17 13 14 17 23 29 32 33 35 35 33 31 30 30 30 30 29 28 29 30 29 29 27 26 25 24 23 21 20 19 17 15 14 13 13 14 14 14
1 2 4 6 7 6 6 6 6 9 10 9 9 9 9 7 5 4 5 6 5 6 6 7 9 7 4 5 10 13 12 9 10 10 9 8 12 14 14 16 19 19 18 19 20 22 23 23 21 16 15 18 23 28 31 32 34 34 32 30 29 29 29 28 28 28 29 29 28 27 26 25 24 23 22 20 19 18 16 14 13 12 12 12 12 12
1 2 4 6 6 7 12 15 11 6 6 6 6 8 10 9 8 8 7 6 6 7 7 7 9 6 3 1 3 4 5 4 4 8 9 6 6 10 10 9 10 10 12 13 15 18 20 21 22 19 18 20 23 26 29 32 33 32 31 29 28 28 28 27 27 28 28 28 27 26 25 24 23 22 21 20 19 18 16 14 13 12 12 11 10 10
3 2 3 5 6 7 11 14 10 2 5 5 4 4 5 7 9 10 7 5 6 8 8 8 10 7 4 4 2 3 3 4 7 3 3 5 8 9 7 6 6 6 7 8 11 14 15 17 20 21 20 22 24 26 28 30 31 31 30 29 29 28 28 27 28 28 28 28 27 26 25 24 23 22 21 20 19 18 16 15 14 13 12 11 10 10
3 2 2 4 6 6 6 7 5 2 4 3 4 6 9 9 8 8 7 6 7 9 9 9 9 7 6 7 4 3 5 5 7 8 8 8 9 8 6 3 2 4 6 8 9 11 14 16 20 22 21 21 23 26 27 29 30 31 31 30 28 28 27 28 28 28 28 27 26 25 25 24 23 22 21 20 19 18 17 16 15 14 13 12 11 10
1 2 2 2 5 6 5 4 1 3 5 5 7 11 10 8 8 6 5 7 9 9 10 9 6 3 6 10 7 0 5 6 5 7 10 10 9 10 8 7 5 2 6 10 11 10 12 15 19 21 20 20 22 24 26 29 30 30 30 29 27 27 28 28 28 28 27 27 26 25 25 24 23 22 21 20 19 17 16 16 15 15 13 13 12 11
1 4 5 6 8 9 8 10 9 9 8 8 12 15 12 9 7 5 3 6 6 6 10 11 7 3 8 11 8 3 4 5 4 3 6 8 9 10 9 9 10 8 5 7 11 11 12 13 16 18 18 19 21 23 26 28 29 29 28 27 26 27 28 28 28 27 27 26 25 25 25 24 23 21 20 18 17 16 15 14 14 14 13 13 13 12
2 6 8 9 12 12 12 16 16 12 11 12 13 16 16 14 11 6 5 7 8 7 8 8 8 10 12 12 11 9 3 5 6 5 6 8 8 8 8 9 9 10 10 7 5 7 9 11 13 15 16 17 19 22 25 27 28 27 26 26 27 27 28 27 27 26 26 26 26 26 25 23 21 20 18 17 16 15 14 14 14 13 13 13 13 12
2 6 8 8 12 14 14 16 15 12 13 13 13 15 17 17 13 10 10 10 8 6 7 11 13 14 14 15 16 14 9 3 1 4 8 8 7 8 8 8 8 7 8 8 8 7 4 3 5 9 13 15 17 20 22 25 26 26 26 26 27 28 27 27 27 26 26 26 26 26 24 22 20 19 18 17 16 15 14 14 14 14 13 13 13 12
2 5 8 9 11 12 12 13 13 13 13 14 15 16 16 17 16 14 13 12 10 10 11 15 18 16 14 15 17 17 16 13 12 7 2 2 5 9 10 8 8 7 6 6 6 6 5 5 4 2 5 9 14 17 20 24 26 27 27 28 29 29 28 27 27 27 27 27 26 24 23 21 20 19 18 17 16 15 15 14 14 14 14 14 13 13
2 4 7 6 6 8 10 11 14 15 14 15 17 17 16 17 17 15 13 12 10 10 11 15 16 13 13 15 17 16 17 17 18 17 12 10 10 8 5 4 5 5 5 4 4 4 4 5 7 8 7 7 9 11 15 21 25 27 28 29 31 31 29 28 28 28 28 27 25 23 22 21 20 19 18 18 17 16 15 15 15 15 15 15 14 14
2 3 5 5 6 8 9 10 13 15 14 15 16 15 13 13 13 12 11 10 10 11 13 15 14 10 9 13 16 17 16 15 15 15 15 17 20 20 18 15 12 9 7 7 9 10 8 8 10 11 12 11 10 9 10 14 21 27 29 31 33 32 30 30 30 29 28 27 25 24 22 21 21 20 19 18 17 17 16 16 16 16 16 16 16 15
3 3 3 3 6 9 9 10 12 11 11 11 11 11 13 14 14 13 12 12 12 11 11 10 9 8 10 14 17 20 18 16 15 16 17 19 21 23 25 27 28 27 23 19 19 19 15 13 13 15 17 16 15 13 11 10 15 24 30 32 34 34 33 32 31 31 29 28 26 24 23 22 21 20 20 19 18 18 17 17 17 17 17 16 16 16
5 5 4 4 4 8 11 11 10 10 10 7 4 5 10 14 15 15 15 15 13 10 9 9 10 12 15 15 16 17 17 17 20 21 22 22 22 23 24 26 29 32 30 25 22 20 17 15 17 20 21 20 19 17 14 11 12 17 25 32 35 37 36 34 33 33 31 29 27 25 24 24 23 22 20 20 19 18 19 18 18 17 17 17 17 17
7 6 5 4 4 7 9 8 9 10 7 3 3 6 11 14 15 17 16 16 14 11 11 13 13 14 15 15 15 17 19 21 26 29 27 24 24 25 24 26 28 27 27 26 24 21 19 20 23 26 25 23 21 19 18 15 12 12 19 29 35 38 38 37 36 34 33 31 29 28 27 26 24 23 22 21 21 20 19 19 19 18 18 18 18 18
9 7 5 4 5 6 7 7 9 9 6 4 6 9 9 9 10 11 12 12 12 11 10 11 12 14 14 15 18 24 25 21 22 29 30 21 16 17 18 19 23 26 26 26 25 24 24 26 28 29 26 23 21 21 21 18 15 12 15 23 32 37 39 39 38 37 35 34 32 30 29 28 27 26 24 24 23 21 20 19 19 19 19 18 18 19
11 8 5 5 6 6 8 9 8 9 11 9 9 9 9 10 11 11 12 12 12 12 12 12 14 17 17 18 21 23 22 16 13 18 19 17 17 21 22 20 19 19 22 25 26 27 28 28 28 28 26 24 23 22 22 19 17 15 15 18 25 32 38 39 39 38 37 35 34 31 30 29 29 29 28 27 25 23 21 20 20 20 20 19 19 19
12 10 7 7 6 6 8 9 7 9 11 8 8 11 12 14 16 15 13 13 12 11 11 12 15 17 16 15 15 14 11 10 8 6 11 14 16 21 23 22 21 19 18 21 25 28 29 29 29 29 27 26 24 23 22 20 20 19 18 17 19 24 32 38 40 40 38 36 33 31 30 31 31 31 31 29 27 24 23 21 21 21 20 20 19 19
14 11 9 8 7 7 8 8 7 8 8 6 7 9 10 14 16 12 11 11 8 7 8 8 10 12 9 8 8 6 5 6 7 4 13 16 17 21 25 25 23 18 15 17 20 22 24 27 29 30 28 27 26 23 22 23 24 23 22 20 19 19 24 31 37 39 39 36 33 31 31 33 34 34 33 32 29 27 26 25 23 22 21 21 21 20
12 9 8 9 10 10 10 9 7 6 6 7 9 9 13 18 16 11 10 7 2 4 7 7 6 7 6 5 5 3 2 4 5 5 12 15 17 20 22 23 23 20 17 18 18 18 19 21 23 26 27 27 26 24 24 26 27 26 26 23 21 21 22 23 26 31 35 36 35 34 34 36 37 36 34 32 30 30 30 29 28 26 24 23 22 22
8 7 8 9 10 12 12 10 7 6 6 8 9 11 15 15 11 10 9 3 2 3 7 7 7 8 7 7 6 4 3 4 5 8 11 13 15 18 19 20 22 22 21 22 21 20 21 20 19 21 23 24 24 22 22 24 25 27 27 25 25 25 24 22 21 22 25 29 31 32 33 35 36 35 31 28 26 27 29 31 32 31 28 26 25 24
6 5 7 8 8 9 10 8 8 6 6 10 13 16 16 12 8 7 3 3 3 6 9 9 9 10 9 9 9 9 10 10 10 10 12 13 13 15 16 19 22 23 23 24 24 23 24 23 22 21 22 22 22 20 20 21 24 25 25 26 27 26 23 22 22 22 22 24 25 27 29 31 32 32 30 28 26 26 27 28 31 33 32 30 27 25
7 5 6 7 7 7 6 8 9 6 6 13 15 13 11 8 2 1 1 3 4 5 7 10 10 10 10 11 13 14 16 15 13 13 15 15 14 15 14 15 18 20 21 24 24 23 23 25 26 26 26 25 23 23 24 26 27 27 25 26 25 23 21 22 23 24 24 26 26 27 29 31 33 33 33 32 31 30 29 28 29 32 34 33 30 28
8 7 6 5 6 6 6 7 7 3 7 16 16 7 3 3 1 2 4 5 4 2 4 8 10 11 12 13 13 14 16 16 15 15 19 19 18 18 17 15 17 18 19 21 22 21 21 23 26 28 29 28 27 28 28 28 29 29 27 26 24 21 21 22 22 24 27 29 30 31 32 35 36 37 37 37 35 32 32 31 31 31 33 35 34 31
10 11 9 7 6 6 6 6 5 4 7 13 15 9 5 5 6 9 8 6 4 3 5 8 11 12 13 14 14 13 14 15 16 17 19 20 20 20 19 18 18 19 20 21 21 20 19 21 23 26 29 29 28 28 27 27 29 30 29 26 23 22 21 21 21 22 26 29 30 31 33 35 37 38 39 38 36 35 35 35 34 34 34 35 36 35
11 12 10 7 6 6 6 7 6 5 8 13 17 18 13 8 9 12 11 10 8 6 6 10 14 14 14 14 12 11 11 13 14 17 19 20 21 21 20 20 21 20 20 21 20 20 20 20 22 24 26 28 27 26 25 25 26 30 31 28 26 24 23 22 22 23 24 26 27 29 30 33 35 36 36 35 34 34 35 37 38 38 37 37 38 37
8 11 9 6 6 7 7 8 9 11 14 19 23 23 17 11 12 12 12 12 12 11 10 11 14 15 14 13 11 10 11 11 13 17 20 21 21 21 21 22 23 22 21 21 21 20 20 20 21 22 24 26 25 24 24 25 26 28 30 30 30 29 28 27 27 27 28 28 29 29 31 33 34 34 33 32 32 32 34 35 37 39 39 39 39 39
7 11 10 6 7 9 8 8 11 15 19 21 21 18 13 13 13 14 16 18 18 16 13 12 13 15 16 15 12 11 11 11 13 17 20 21 21 21 21 23 24 23 22 22 21 20 20 20 20 21 23 24 22 20 21 23 24 24 25 26 27 28 30 31 31 30 30 29 29 30 31 32 32 32 32 32 31 32 33 35 37 40 41 41 40 41
6 7 6 5 6 8 8 8 10 13 16 20 21 20 19 20 19 18 18 18 18 17 14 12 13 16 18 17 14 13 12 12 13 16 19 21 21 21 22 23 24 24 23 22 22 22 21 20 19 19 21 22 21 18 17 18 18 19 19 19 20 22 25 28 28 28 27 27 27 29 31 31 31 31 30 30 31 32 33 35 37 39 41 40 39 40
5 5 4 4 4 5 6 8 10 9 8 13 18 20 21 24 24 21 18 17 18 16 12 11 14 17 18 16 14 14 14 15 14 15 18 20 20 19 21 22 24 24 23 22 22 23 23 22 20 19 19 19 19 19 19 19 17 16 16 16 17 18 22 24 24 25 26 26 27 29 31 31 30 30 29 29 30 31 33 34 35 37 38 38 37 37
7 7 6 6 6 7 8 12 14 10 7 11 18 21 19 17 17 18 18 17 17 14 12 11 14 16 16 14 14 15 17 17 16 17 19 20 19 19 19 21 22 24 23 22 22 23 23 23 21 19 19 18 18 20 21 21 19 16 15 15 15 17 20 21 22 24 26 27 27 28 29 30 29 28 28 29 30 32 33 35 36 36 35 35 36 36
Wind_Direction
184 194 213 216 218 202 201 213 221 243 259 264 271 258 247 234 239 239 99 179 176 187 224 220 236 248 248 243 240 253 254 243 233 228 231 236 242 247 248 247 245 244 250 256 254 250 249 248 243 240 242 241 232 226 223 221 220 222 225 229 234 238 243 248 254 258 257 249 240 236 234 233 234 236 236 235 234 235 234 230 224 224 225 228 230 233
190 211 227 219 214 202 204 214 218 237 251 260 270 273 278 251 244 5 98 180 189 216 242 229 245 253 250 246 233 236 245 245 235 228 231 232 235 241 246 249 249 249 252 253 251 246 245 245 242 238 237 238 231 226 224 223 223 226 231 235 239 242 246 251 256 260 258 248 237 234 233 233 234 236 237 236 235 233 232 229 227 226 226 227 230 233
200 231 236 219 202 214 216 214 209 219 232 242 252 258 265 244 229 356 70 177 189 217 253 276 272 265 258 247 238 229 236 245 239 234 236 234 233 237 240 246 249 250 250 249 249 246 244 245 245 244 242 240 236 232 230 228 228 230 234 238 241 245 248 252 256 260 258 245 234 232 232 233 235 237 237 237 236 234 232 233 234 234 233 233 234 236
214 234 235 215 214 220 220 222 210 211 218 222 228 233 247 242 216 256 259 205 220 241 264 338 301 277 267 251 245 234 236 247 243 238 240 236 234 237 239 242 244 246 248 248 248 246 244 244 245 247 248 246 241 238 236 234 234 234 236 239 242 245 248 252 256 260 256 241 231 230 230 232 235 236 237 236 235 234 233 234 234 236 237 239 241 241
230 234 213 197 214 220 220 224 216 211 215 217 218 225 239 230 210 233 210 160 273 297 288 342 309 281 261 237 243 234 231 244 241 237 242 239 235 238 240 241 241 243 246 248 249 248 244 243 243 245 247 247 243 240 239 238 238 238 239 240 242 244 247 252 256 257 249 234 227 226 224 226 229 229 231 230 229 228 230 233 235 238 242 244 247 247
236 241 235 209 212 218 223 222 211 205 216 228 219 223 232 218 195 202 152 140 284 281 219 165 272 282 264 214 233 237 216 237 238 229 238 238 235 235 236 239 240 241 244 246 249 249 246 244 243 244 243 242 242 242 242 242 241 241 241 241 242 242 246 250 253 251 241 228 223 222 220 220 221 221 222 224 226 227 232 237 241 246 248 247 247 247
239 237 238 240 221 214 223 223 208 197 214 241 216 213 223 215 200 189 164 166 220 252 221 160 198 272 279 219 223 227 206 235 239 224 235 235 233 232 232 236 237 240 242 244 246 247 246 244 241 241 240 239 241 242 243 242 241 241 240 240 240 241 244 247 246 242 232 223 221 222 222 222 222 221 221 224 228 232 237 241 244 248 248 247 245 245
231 225 223 243 232 214 220 219 207 197 213 243 224 205 207 206 210 193 170 185 212 264 339 230 189 266 278 251 207 198 205 248 250 237 238 229 227 230 232 235 237 239 242 242 244 244 241 240 239 239 240 240 241 242 242 241 241 241 240 240 240 240 240 239 238 234 224 219 220 222 222 224 224 225 225 226 230 233 238 242 243 244 243 243 243 244
225 213 203 219 225 213 214 218 208 201 214 232 234 225 194 195 202 181 172 199 225 256 251 234 190 240 272 261 163 186 203 237 246 238 239 229 223 226 230 235 238 242 244 243 244 245 241 239 238 240 242 242 242 241 240 240 240 240 239 239 238 236 233 232 232 226 219 217 220 221 222 223 223 225 227 229 232 235 238 241 241 243 245 245 244 245
244 214 208 212 216 213 217 220 207 205 215 199 138 58 74 163 168 152 167 177 185 226 234 223 187 203 268 262 151 187 209 221 239 238 233 233 226 225 230 235 239 243 244 245 245 246 246 241 238 239 241 242 241 241 240 239 238 238 236 234 232 229 228 228 226 219 215 216 219 221 222 222 221 223 225 226 228 230 231 232 234 240 246 251 252 253
268 14 313 241 226 231 233 229 219 214 195 132 100 79 55 47 103 124 155 152 169 229 238 227 191 179 260 266 182 200 225 210 227 245 229 227 228 228 232 235 238 240 242 245 246 245 246 242 235 232 235 238 240 239 238 237 236 234 233 229 226 225 224 222 219 215 214 216 218 221 220 220 221 222 223 223 221 222 226 231 235 239 244 249 253 257
250 304 304 283 287 307 273 240 316 257 161 131 117 132 92 17 53 66 178 180 189 230 242 226 183 170 239 261 190 191 232 210 197 230 227 218 227 231 235 238 239 238 237 238 238 236 236 233 227 225 227 231 234 235 235 234 232 229 226 224 221 219 217 215 214 213 214 215 218 220 219 219 221 222 224 225 225 227 231 238 242 245 248 250 251 253
243 226 217 243 271 265 242 205 222 272 159 155 160 158 164 204 179 155 201 201 208 237 253 169 156 176 234 254 246 229 259 252 203 215 214 200 216 230 237 240 237 229 222 220 220 224 229 231 230 227 225 226 229 233 233 231 227 220 218 218 215 212 210 210 211 212 214 215 217 218 217 219 220 223 226 229 232 235 238 243 246 248 251 253 255 257
245 221 205 216 231 207 211 207 196 199 185 182 169 171 192 191 188 205 195 204 223 240 255 155 164 196 237 253 256 243 249 257 255 263 261 245 233 231 235 233 226 223 220 220 222 226 230 232 233 232 230 230 232 235 236 232 223 214 212 212 210 208 207 207 209 211 214 215 216 217 217 219 220 223 227 231 235 240 243 246 248 251 254 257 261 264
254 243 193 191 194 189 202 217 210 183 188 200 183 186 207 194 199 209 187 208 220 237 271 176 184 208 206 239 259 231 226 233 244 254 258 258 254 243 233 224 222 225 229 233 235 235 235 233 233 234 232 232 232 233 236 233 220 210 207 206 205 205 205 207 210 212 214 216 216 216 217 219 221 225 229 233 238 242 245 247 249 253 258 262 265 267
249 261 191 190 197 185 195 214 207 182 193 208 196 204 212 204 215 231 223 218 210 224 247 187 216 230 239 268 281 273 200 201 229 246 251 257 253 233 218 218 222 226 234 241 241 238 236 233 231 231 230 229 229 228 229 225 215 206 202 201 202 204 206 209 211 213 215 217 217 216 217 219 222 226 229 233 238 241 245 248 251 256 260 264 266 267
247 258 193 193 208 197 195 202 197 193 194 182 200 213 211 214 230 239 243 232 200 227 212 164 217 258 289 279 266 251 245 217 217 234 237 240 232 213 208 215 222 230 238 246 250 246 242 236 230 228 227 225 225 225 223 218 209 203 201 200 202 205 208 212 213 214 217 218 217 216 217 220 222 227 230 233 238 242 246 250 254 258 261 264 265 266
329 293 315 206 223 226 212 209 205 206 204 187 202 201 193 226 246 239 244 233 210 230 217 178 196 207 222 256 259 233 233 233 223 219 222 221 213 212 219 223 228 235 240 244 247 248 246 244 238 232 229 224 222 222 220 213 205 202 202 202 204 207 210 213 214 216 218 217 216 215 217 220 223 227 230 234 239 244 248 252 256 260 262 263 264 265
2 316 287 222 218 232 220 214 223 220 218 222 219 188 181 216 224 202 225 235 222 231 229 205 202 198 207 231 260 247 232 226 217 213 217 218 211 216 226 231 233 235 236 236 236 237 239 244 248 240 231 222 217 218 217 210 204 202 203 204 207 211 213 214 215 216 217 215 214 215 217 220 223 226 230 234 239 244 249 253 257 259 259 260 260 263
355 308 283 329 286 266 216 202 217 223 226 268 306 220 211 219 209 204 219 231 232 236 234 225 218 207 206 221 245 250 244 237 238 228 216 213 218 221 222 228 232 228 225 225 227 231 235 241 248 242 233 223 215 214 214 209 205 204 204 205 208 212 214 216 216 216 214 212 213 215 217 220 223 226 230 234 238 243 248 252 254 255 255 257 259 262
314 268 276 325 331 315 246 205 199 201 206 207 220 230 228 226 217 210 233 231 233 239 234 232 233 223 205 213 235 248 251 247 254 253 219 208 218 222 220 224 229 227 221 219 224 231 234 237 239 235 230 222 213 211 212 210 207 206 206 206 209 213 215 215 214 213 211 210 212 215 217 220 222 226 229 233 237 241 245 248 249 251 253 257 260 261
296 267 283 300 311 302 288 288 256 224 218 206 204 213 214 215 225 237 239 226 223 240 239 242 248 235 199 217 243 256 261 253 243 234 221 211 210 205 201 211 221 223 221 221 224 229 232 232 230 227 224 217 210 210 212 210 209 208 207 208 211 214 215 213 210 208 207 209 213 215 218 219 221 225 228 231 236 239 241 243 243 246 251 256 261 260
266 253 280 279 274 281 292 297 293 289 285 260 231 219 214 208 208 218 224 212 213 232 241 257 263 245 205 240 278 291 292 298 278 234 214 192 153 143 142 159 182 197 210 219 224 226 228 226 224 223 221 215 210 211 212 212 211 209 208 210 213 214 214 212 208 206 206 210 213 215 216 217 219 223 226 230 235 238 240 241 242 244 249 255 260 260
287 273 272 282 282 284 286 278 267 347 14 307 285 288 264 240 224 224 225 221 224 221 218 238 250 246 260 289 330 7 340 7 24 32 151 118 92 102 121 137 153 168 180 198 216 222 223 221 219 218 215 210 208 209 211 211 210 209 209 212 214 213 213 210 206 204 207 211 212 213 214 216 218 222 226 230 234 237 240 243 245 246 248 252 257 259
303 305 324 323 311 303 295 269 237 91 34 343 330 329 322 322 302 268 246 241 243 228 219 232 237 234 255 268 285 25 41 43 37 44 71 87 88 88 83 83 153 204 192 186 202 215 216 215 213 213 212 209 208 208 210 210 209 209 211 214 214 212 212 209 205 205 207 210 210 211 214 216 218 222 226 230 233 237 241 245 248 249 248 249 251 254
268 274 304 318 293 284 283 274 269 14 353 336 322 307 312 345 346 317 276 251 237 222 224 234 244 286 284 267 265 86 83 67 48 52 66 77 86 86 80 77 81 125 191 190 189 198 209 212 212 213 213 212 211 211 212 212 211 212 214 216 214 213 212 208 205 205 206 207 209 212 215 217 219 222 226 230 233 236 240 244 247 248 246 245 246 247
193 241 243 226 247 260 269 280 301 330 320 302 305 303 305 317 318 320 297 274 272 254 236 226 215 266 283 275 273 241 154 124 117 100 83 94 103 98 90 87 83 80 108 177 192 195 198 201 206 211 214 217 218 218 217 216 215 216 218 217 214 212 211 208 205 204 204 207 211 214 217 219 220 222 226 230 233 234 236 240 244 245 243 242 242 241
221 250 236 222 240 251 260 271 283 298 294 288 292 292 292 295 296 298 281 285 312 308 261 239 221 223 239 252 263 269 244 145 145 148 128 127 135 130 117 109 102 91 89 105 150 184 198 206 209 212 216 219 220 221 221 221 221 222 222 220 215 210 208 207 205 204 205 208 212 215 217 219 220 223 225 227 229 229 229 232 238 243 244 242 241 240
221 250 239 234 249 252 253 263 270 276 277 277 278 278 282 287 287 289 282 280 293 287 281 298 287 257 242 240 245 257 264 250 145 130 132 141 158 159 150 146 143 127 108 98 93 99 126 187 219 224 228 230 230 228 226 225 225 226 226 222 215 210 207 207 206 206 206 209 213 217 218 218 220 221 222 225 227 227 227 229 234 240 246 247 245 241
198 254 254 251 254 254 256 265 272 275 275 277 279 276 279 283 281 280 278 273 268 263 273 289 289 279 268 255 247 252 263 280 297 295 244 165 179 174 166 163 159 147 127 106 88 79 70 52 29 316 265 253 250 246 239 234 230 229 227 222 215 211 209 209 208 207 208 211 215 217 218 218 220 221 223 225 227 228 228 228 232 237 242 247 248 246
190 263 277 283 277 269 271 277 278 276 272 270 271 269 268 273 275 272 269 266 265 269 275 278 282 288 284 273 268 267 272 284 291 287 286 293 284 260 234 214 186 160 132 96 57 34 19 7 356 344 327 303 282 268 257 248 240 234 230 222 217 213 211 211 209 208 210 214 215 217 218 219 221 223 225 228 229 230 230 230 232 236 239 242 246 246
199 264 294 310 295 278 277 277 275 277 274 264 262 267 268 267 268 263 257 254 259 272 283 283 281 285 290 291 290 285 279 276 275 279 287 288 288 293 296 291 281 274 276 300 325 333 329 322 322 321 315 310 302 291 279 264 250 241 234 225 219 216 213 212 211 210 212 215 216 217 219 221 223 225 227 229 230 230 231 233 234 236 237 238 242 245
215 250 281 275 274 280 279 275 278 285 283 265 251 251 255 256 260 261 259 256 252 252 262 268 267 283 305 309 300 293 288 278 268 267 272 275 276 278 282 285 286 286 287 294 307 309 304 301 305 307 307 304 299 295 293 278 258 247 238 230 223 219 216 214 213 213 215 216 217 218 220 222 224 225 227 230 233 234 233 234 235 236 238 239 240 242
213 225 239 235 256 273 273 275 279 270 261 264 262 246 253 259 263 265 267 265 255 242 249 266 275 287 293 289 283 286 293 299 298 285 267 261 262 262 264 269 276 282 285 291 299 298 288 287 296 299 299 297 296 297 296 282 266 253 242 234 228 222 219 217 216 217 217 218 219 220 221 223 223 224 226 229 233 237 238 238 237 237 238 239 240 241
225 221 229 233 237 258 267 269 263 254 254 294 301 256 253 258 262 268 272 272 268 262 262 267 268 270 274 275 281 290 296 306 315 309 292 272 261 260 261 258 257 262 272 281 286 283 278 284 293 294 291 289 289 292 292 287 279 265 247 238 233 228 224 222 221 222 222 222 222 222 222 223 224 224 226 228 231 234 239 241 242 240 238 238 240 242
229 224 220 228 234 249 257 245 246 266 290 298 274 268 269 271 275 282 280 274 272 268 262 260 263 269 276 281 286 290 295 306 309 301 303 309 305 303 304 288 269 258 256 263 270 273 278 283 287 289 288 287 286 285 287 288 287 279 259 244 238 233 229 227 226 226 226 226 226 226 226 226 227 228 229 231 233 234 237 240 242 242 242 241 241 241
224 226 219 224 226 233 248 249 255 275 278 269 264 268 270 268 272 280 279 272 266 262 260 260 267 276 278 278 282 289 300 316 302 283 302 338 349 343 343 337 317 290 268 262 263 268 277 280 281 286 288 287 286 284 284 287 289 284 273 256 245 239 235 233 230 229 229 230 230 230 231 230 231 232 233 234 235 238 240 242 243 242 242 243 244 244
219 218 213 222 223 222 245 256 257 258 261 257 245 240 240 244 249 252 260 269 268 261 258 255 258 266 267 269 283 303 319 314 286 294 341 345 332 331 335 334 334 329 310 294 283 276 276 276 278 285 289 286 283 281 280 282 285 285 277 265 254 245 240 238 236 234 233 232 233 235 236 237 237 237 237 238 239 241 244 246 248 247 244 243 245 248
224 222 218 225 234 233 241 249 249 249 254 253 245 246 255 260 259 253 253 260 256 233 227 231 242 251 253 262 286 316 336 294 267 329 0 343 324 329 333 330 330 331 325 319 311 298 291 286 283 284 285 284 281 277 276 278 280 280 275 267 260 251 245 241 240 238 237 235 235 237 239 243 245 244 244 244 245 247 248 249 252 252 249 245 244 245
225 224 220 225 233 236 238 243 246 247 245 243 241 241 253 261 263 262 259 259 226 203 227 234 247 256 258 277 293 291 275 270 271 329 347 336 320 319 323 327 330 325 314 311 312 309 307 303 296 289 285 285 285 281 277 277 277 276 273 268 261 254 250 247 244 242 240 239 238 239 241 245 249 251 252 252 253 254 253 252 252 252 251 249 245 243
219 216 216 223 229 233 237 241 246 246 237 238 242 241 247 256 255 246 252 276 39 294 285 282 281 283 279 275 277 268 265 288 304 320 332 333 323 312 308 314 321 318 312 311 310 307 308 308 306 299 292 292 296 292 284 278 276 274 271 268 263 258 256 255 252 247 243 241 240 241 243 246 250 253 256 258 258 257 255 253 252 251 252 252 248 244
211 205 212 219 223 230 237 241 250 253 221 219 238 243 240 246 254 246 261 26 6 315 332 332 305 304 318 316 313 317 322 321 316 315 325 333 330 321 311 309 311 307 303 305 308 307 304 301 298 295 292 295 299 298 294 289 283 277 272 266 263 262 260 258 254 251 248 244 242 242 244 247 250 254 256 257 256 255 255 253 252 250 250 251 249 245
199 203 218 217 215 225 232 232 243 256 198 201 222 235 225 218 235 244 248 340 329 320 338 335 321 327 345 345 336 330 326 322 317 319 328 334 338 337 329 321 320 317 311 310 313 313 306 296 290 286 286 289 290 290 292 292 287 282 276 268 265 264 260 255 252 251 249 247 246 245 247 249 251 252 254 256 256 255 254 253 251 249 247 248 248 244
194 206 227 211 201 216 228 227 231 241 209 208 214 223 215 207 322 341 260 268 292 303 314 317 315 322 334 339 337 331 324 322 324 327 329 331 336 340 339 330 326 326 324 323 324 321 310 298 290 283 279 279 279 279 280 281 282 282 277 270 268 268 262 256 252 248 246 246 247 247 248 249 251 252 253 255 255 253 250 249 248 247 245 245 246 245
198 207 223 221 212 213 222 228 217 200 217 218 215 221 233 232 267 282 266 240 240 271 308 309 299 299 310 319 326 326 321 323 328 327 325 327 331 337 340 338 334 335 334 331 329 325 317 307 299 291 282 275 273 273 270 270 275 277 274 269 270 271 267 262 256 250 246 244 244 244 245 246 248 250 251 252 250 248 246 244 243 243 242 241 242 242
211 212 219 225 237 243 244 251 248 236 247 245 241 250 256 230 229 248 233 207 218 247 272 283 282 284 294 302 308 313 313 317 321 319 320 326 331 335 337 336 336 339 340 337 333 328 323 316 310 304 294 285 280 276 269 265 267 269 269 270 271 270 266 264 259 253 250 247 244 244 245 245 246 247 248 248 246 244 242 242 240 239 239 239 239 240
221 222 224 222 231 241 245 246 245 248 256 258 259 267 265 222 204 224 230 230 251 263 257 262 272 279 286 291 293 296 303 308 311 313 320 328 333 335 335 333 335 339 342 342 337 330 326 325 324 320 313 304 297 286 272 262 259 262 266 268 267 264 263 262 261 259 257 255 253 251 249 247 246 246 246 244 241 238 236 236 236 236 236 236 235 236
211 213 222 227 223 230 241 244 246 252 257 258 260 263 248 214 211 232 244 254 269 271 262 265 280 286 288 288 288 293 301 305 308 312 319 326 331 333 332 331 333 336 340 342 339 332 329 330 332 333 329 324 317 300 279 265 258 258 263 265 262 260 261 261 261 261 259 257 254 251 247 245 243 242 243 242 240 237 235 234 233 234 234 234 234 234
198 189 201 221 227 239 251 253 256 264 265 261 258 255 250 248 246 241 240 252 264 262 256 268 288 290 286 285 290 296 297 298 305 312 316 321 327 331 330 330 331 332 335 339 340 337 332 330 331 336 337 336 330 318 302 287 271 260 260 261 258 256 257 257 257 258 257 254 250 246 244 243 241 240 241 243 241 239 238 237 237 237 236 235 235 235
210 204 203 211 228 242 242 236 237 245 256 259 259 260 263 264 257 244 236 240 245 244 248 272 288 288 285 285 289 290 290 295 304 310 312 317 324 327 327 328 328 329 331 334 337 339 335 329 329 332 336 339 337 331 326 319 302 279 268 267 265 260 258 257 256 255 253 251 247 245 244 242 240 240 242 244 243 239 236 235 235 236 236 236 234 233
219 222 213 214 229 230 230 236 237 234 244 258 262 267 272 269 256 242 232 228 227 230 240 259 273 280 282 281 281 282 288 295 302 308 311 315 319 323 326 327 326 327 328 330 333 338 338 334 331 330 331 335 338 338 337 334 324 304 284 275 273 268 263 259 256 253 251 250 248 246 245 244 242 242 244 245 242 238 234 231 229 229 230 231 231 230